Location: Sungai Dangang
(2.7500°N, 113.8333°E)
Time: 22:22:24
(UTC+00:00)

Centaur D AC-25 - Pass Details

Date: 16 May 2021
Orbit: 650 x 36434 km, 27.8° (Epoch: 15 June)

Event Time Altitude Azimuth Distance (km) Brightness Sun altitude
Exits shadow 21:24:07 - 296° (WNW) 2,266 4.5 -12.5°
Reaches altitude 10° 21:24:34 10° 296° (WNW) 2,036 4.3 -12.4°
Maximum altitude 21:28:12 80° 208° (SSW) 781 2.5 -11.5°
Drops below altitude 10° 21:35:36 10° 121° (ESE) 4,044 6.8 -9.8°
Sets 21:41:47 0° 120° (ESE) 6,923 8.0 -8.3°
